This demonstration page uses our WeatherBlox Daily Observations layout. Learn more.

Left ArrowRight Arrow

39.51506, -84.39828

Hourly Observations for January 21, 2019

Temp ( °F °C ) Dew Point ( °F °C ) Humidity (%) Winds ( mph kmh ) Pressure ( in mb ) Visibility ( mi km ) Precip ( " mm )
12:15 am 00:15 Clear 5 -15 2 -16.9 86 86 NNE 3 6 30.50 1033 10 16 0.00 0.00
12:35 am 00:35 Partly Cloudy 5 -15.1 2 -16.8 87 87 Calm 30.50 1033 10 16 0.00 0.00
12:55 am 00:55 Cloudy 4 -15.7 1 -17.4 87 87 Calm 30.50 1033 10 16 0.00 0.00
1:15 am 01:15 Cloudy 3 -15.9 0 -17.6 87 87 Calm 30.50 1033 10 16 0.00 0.00
1:35 am 01:35 Cloudy with Light Snow 4 -15.7 1 -17.4 87 87 Calm 30.50 1033 10 16 0.00 0.00
1:55 am 01:55 Partly Cloudy 4 -15.5 1 -17.1 88 88 Calm 30.50 1033 10 16 0.00 0.00
2:15 am 02:15 Mostly Cloudy 3 -15.9 0 -17.6 87 87 Calm 30.50 1033 10 16 0.00 0.00
2:35 am 02:35 Cloudy 3 -15.9 0 -17.7 86 86 Calm 30.50 1033 10 16 0.00 0.00
2:55 am 02:55 Cloudy 4 -15.6 1 -17.4 86 86 Calm 30.53 1034 10 16 0.00 0.00
3:15 am 03:15 Cloudy 4 -15.6 1 -17.4 86 86 Calm 30.53 1034 10 16 0.00 0.00
3:35 am 03:35 Clear 4 -15.6 1 -17.4 86 86 Calm 30.53 1034 10 16 0.00 0.00
3:55 am 03:55 Clear 4 -15.6 1 -17.4 86 86 Calm 30.53 1034 10 16 0.00 0.00
4:15 am 04:15 Clear 2 -16.9 -1 -18.6 87 87 Calm 30.53 1034 10 16 0.00 0.00
4:35 am 04:35 Clear 1 -17.1 -2 -19 85 85 Calm 30.53 1034 10 16 0.00 0.00
4:55 am 04:55 Clear 0 -17.9 -4 -19.9 84 84 Calm 30.53 1034 10 16 0.00 0.00
5:15 am 05:15 Clear 0 -18 -4 -20 84 84 Calm 30.56 1035 10 16 0.00 0.00
5:35 am 05:35 Clear 0 -18 -4 -20 84 84 Calm 30.56 1035 10 16 0.00 0.00
5:55 am 05:55 Clear 1 -17.5 -3 -19.5 85 85 Calm 30.56 1035 10 16 0.00 0.00
6:15 am 06:15 Clear 1 -17.5 -4 -19.8 82 82 N 6 9 30.59 1036 10 16 0.00 0.00
6:35 am 06:35 Clear 0 -17.7 -4 -20 82 82 N 7 11 30.59 1036 10 16 0.00 0.00
6:55 am 06:55 Clear 0 -18 -5 -20.5 81 81 N 5 7 30.62 1037 10 16 0.00 0.00
7:15 am 07:15 Clear -1 -18.1 -5 -20.8 80 80 N 5 7 30.62 1037 10 16 0.00 0.00
7:35 am 07:35 Clear -1 -18.3 -7 -21.6 75 75 Calm 30.62 1037 10 16 0.00 0.00
7:55 am 07:55 Sunny -1 -18.6 -7 -21.7 77 77 N 5 7 30.65 1038 10 16 0.00 0.00
8:15 am 08:15 Sunny -2 -18.7 -7 -21.7 77 77 N 5 7 30.65 1038 10 16 0.00 0.00
8:35 am 08:35 Sunny -1 -18.4 -7 -21.7 75 75 N 5 7 30.65 1038 10 16 0.00 0.00
8:55 am 08:55 Sunny 0 -17.8 -7 -21.9 71 71 N 3 6 30.68 1039 10 16 0.00 0.00
9:15 am 09:15 Sunny 1 -17.5 -7 -21.6 71 71 NNE 7 11 30.68 1039 10 16 0.00 0.00
9:35 am 09:35 Sunny 1 -17 -7 -21.8 67 67 NNE 7 11 30.71 1040 10 16 0.00 0.00
9:55 am 09:55 Sunny 2 -16.7 -7 -21.5 67 67 N 3 6 30.71 1040 10 16 0.00 0.00
10:15 am 10:15 Sunny 2 -16.4 -7 -21.5 65 65 Calm 30.71 1040 10 16 0.00 0.00
10:35 am 10:35 Sunny 4 -15.3 -6 -21.1 61 61 Calm 30.74 1041 10 16 0.00 0.00
10:55 am 10:55 Sunny 6 -14.6 -6 -21.2 58 58 Calm 30.74 1041 10 16 0.00 0.00
11:15 am 11:15 Sunny 6 -14.2 -6 -21 57 57 E 3 6 30.71 1040 10 16 0.00 0.00
11:35 am 11:35 Sunny 7 -13.9 -6 -21.1 55 55 Calm 30.71 1040 10 16 0.00 0.00
11:55 am 11:55 Sunny 7 -13.9 -7 -21.6 52 52 Calm 30.71 1040 10 16 0.00 0.00
12:15 pm 12:15 Sunny 8 -13.4 -7 -21.4 51 51 Calm 30.71 1040 10 16 0.00 0.00
12:35 pm 12:35 Sunny 8 -13.6 -7 -21.4 52 52 Calm 30.71 1040 10 16 0.00 0.00
12:55 pm 12:55 Sunny 9 -13 -6 -21.1 51 51 Calm 30.71 1040 10 16 0.00 0.00
1:15 pm 13:15 Sunny 10 -12.5 -4 -20.2 53 53 Calm 30.71 1040 10 16 0.00 0.00
1:35 pm 13:35 Sunny 10 -12.2 -4 -20.2 52 52 Calm 30.68 1039 10 16 0.00 0.00
1:55 pm 13:55 Sunny 11 -11.5 -6 -21.3 44 44 Calm 30.65 1038 10 16 0.00 0.00
2:15 pm 14:15 Sunny 13 -10.7 -5 -20.7 44 44 Calm 30.65 1038 10 16 0.00 0.00
2:35 pm 14:35 Sunny 12 -11.2 -7 -21.4 43 43 ENE 3 6 30.65 1038 10 16 0.00 0.00
2:55 pm 14:55 Sunny 13 -10.7 -10 -23.1 36 36 E 3 6 30.65 1038 10 16 0.00 0.00
3:15 pm 15:15 Sunny 13 -10.7 -9 -22.6 37 37 Calm 30.65 1038 10 16 0.00 0.00
3:35 pm 15:35 Sunny 13 -10.5 -6 -21 42 42 ENE 3 6 30.62 1037 10 16 0.00 0.00
3:55 pm 15:55 Sunny 13 -10.8 -3 -19.6 49 49 ENE 6 9 30.65 1038 10 16 0.00 0.00
4:15 pm 16:15 Sunny 13 -10.6 -4 -20 46 46 E 8 13 30.62 1037 10 16 0.00 0.00
4:35 pm 16:35 Sunny 13 -10.5 -7 -21.5 40 40 E 6 9 30.62 1037 10 16 0.00 0.00
4:55 pm 16:55 Sunny 12 -11.1 -5 -20.8 45 45 E 8 13 30.62 1037 10 16 0.00 0.00
5:15 pm 17:15 Sunny 12 -11.3 -5 -20.7 46 46 E 8 13 30.62 1037 10 16 0.00 0.00
5:35 pm 17:35 Sunny 11 -11.6 -5 -20.8 47 47 E 8 13 30.62 1037 10 16 0.00 0.00
5:55 pm 17:55 Clear 10 -12.1 -6 -20.9 48 48 ENE 9 15 30.62 1037 10 16 0.00 0.00
6:15 pm 18:15 Clear 10 -12.4 -5 -20.7 50 50 ENE 7 11 30.68 1039 10 16 0.00 0.00
6:35 pm 18:35 Clear 9 -13 -5 -20.6 53 53 ENE 7 11 30.68 1039 10 16 0.00 0.00
6:55 pm 18:55 Clear 9 -13 -6 -20.9 52 52 ENE 5 7 30.68 1039 10 16 0.00 0.00
7:15 pm 19:15 Clear 8 -13.2 -6 -20.9 53 53 ENE 5 7 30.68 1039 10 16 0.00 0.00
7:35 pm 19:35 Clear 8 -13.4 -6 -20.9 54 54 ENE 8 13 30.65 1038 10 16 0.00 0.00
7:55 pm 19:55 Clear 8 -13.5 -5 -20.4 56 56 ENE 7 11 30.65 1038 10 16 0.00 0.00
8:15 pm 20:15 Clear 7 -13.7 -4 -19.8 60 60 ENE 8 13 30.65 1038 10 16 0.00 0.00
8:35 pm 20:35 Clear 8 -13.6 -4 -19.8 60 60 ENE 6 9 30.65 1038 10 16 0.00 0.00
8:55 pm 20:55 Clear 8 -13.6 -3 -19.5 61 61 E 5 7 30.65 1038 10 16 0.00 0.00
9:15 pm 21:15 Clear 8 -13.6 -3 -19.3 62 62 ENE 3 6 30.65 1038 10 16 0.00 0.00
9:35 pm 21:35 Clear 8 -13.5 -2 -19.1 63 63 Calm 30.65 1038 10 16 0.00 0.00
9:55 pm 21:55 Clear 8 -13.3 -2 -19 63 63 Calm 30.65 1038 10 16 0.00 0.00
10:15 pm 22:15 Clear 8 -13.2 -2 -18.8 63 63 ENE 3 6 30.65 1038 10 16 0.00 0.00
10:35 pm 22:35 Clear 9 -12.9 -2 -18.7 62 62 NE 5 7 30.65 1038 10 16 0.00 0.00
10:55 pm 22:55 Clear 9 -12.6 -1 -18.6 61 61 ENE 3 6 30.62 1037 10 16 0.00 0.00
11:15 pm 23:15 Clear 10 -12.3 -2 -18.7 59 59 Calm 30.59 1036 10 16 0.00 0.00
11:35 pm 23:35 Clear 10 -12 -1 -18.4 59 59 E 5 7 30.59 1036 10 16 0.00 0.00
11:55 pm 23:55 Clear 11 -11.7 -1 -18.2 59 59 E 6 9 30.59 1036 10 16 0.00 0.00

Powered by AerisWeather